DW5492 Weather Reports


time (UTC)temp
C
wind
direction
speed
KPH
gust
KPH
rain 1hr
cm
rain 24hr
cm
rain mn
cm
humidity
%
barometer
mb
20260507232703 26 99 4.8 9.7 0.00 0.08 0.08 85 1011.9
20260507231803 26 86 8.0 16.1 0.00 0.08 0.08 85 1011.7
20260507230905 27 93 8.0 16.1 0.00 0.08 0.08 85 1011.6
20260507230005 27 87 6.4 16.1 0.00 0.08 0.08 85 1011.2
20260507225404 27 92 8.0 14.5 0.00 0.08 0.08 85 1011.2
20260507224505 27 98 4.8 14.5 0.00 0.08 0.08 84 1011.2
20260507223605 27 85 6.4 14.5 0.00 0.08 0.08 84 1011.2
20260507222705 27 87 6.4 12.9 0.00 0.08 0.08 83 1011.1
20260507221805 27 92 6.4 12.9 0.00 0.08 0.08 83 1011.3
20260507220904 27 92 4.8 11.3 0.00 0.08 0.08 83 1011.3
20260507220004 27 87 6.4 14.5 0.00 0.08 0.08 83 1011.1
20260507215405 27 80 9.7 17.7 0.00 0.08 0.08 83 1011.1
20260507214504 27 84 8.0 17.7 0.00 0.08 0.08 82 1010.7
20260507213605 27 86 9.7 16.1 0.00 0.08 0.08 82 1010.6
20260507212705 27 87 8.0 16.1 0.00 0.08 0.08 82 1010.5
20260507211804 26 139 3.2 9.7 0.00 0.08 0.08 85 1010.6
20260507210904 26 155 1.6 3.2 0.00 0.08 0.08 87 1010.4
20260507210026 26 189 1.6 4.8 0.00 0.08 0.08 87 1010.6
20260507205426 26 197 1.6 4.8 0.00 0.08 0.08 87 1010.4
20260507204505 26 183 3.2 9.7 0.00 0.08 0.08 87 1010.5
20260507203604 26 209 4.8 9.7 0.00 0.08 0.08 89 1010.5
20260507202704 26 212 4.8 9.7 0.03 0.08 0.08 87 1010.4
20260507201805 26 191 4.8 12.9 0.03 0.08 0.08 87 1010.5
20260507200904 26 206 4.8 11.3 0.03 0.08 0.08 87 1010.7
20260507200005 26 162 3.2 9.7 0.03 0.08 0.08 85 1011.0
20260507195404 26 173 3.2 9.7 0.03 0.08 0.08 86 1010.7
20260507194505 26 159 1.6 9.7 0.03 0.08 0.08 88 1010.7
20260507193604 29 192 3.2 9.7 0.03 0.08 0.08 88 1010.9
20260507192725 29 121 8.0 14.5 0.00 0.05 0.05 83 1011.0
20260507191805 30 82 8.0 14.5 0.00 0.05 0.05 81 1010.7
20260507190905 30 110 4.8 11.3 0.00 0.05 0.05 81 1011.0
20260507190005 30 94 9.7 14.5 0.00 0.05 0.05 77 1010.8
20260507185405 30 91 11.3 20.9 0.00 0.05 0.05 77 1010.7
20260507184504 30 77 12.9 20.9 0.00 0.05 0.05 77 1010.9
20260507183605 30 81 11.3 22.5 0.00 0.05 0.05 78 1011.1
20260507182704 30 82 11.3 17.7 0.00 0.05 0.05 76 1010.8
20260507181804 30 78 9.7 22.5 0.00 0.05 0.05 76 1011.2
20260507180905 29 96 9.7 16.1 0.00 0.05 0.05 79 1011.1
20260507180005 30 106 9.7 20.9 0.00 0.05 0.05 77 1011.4
20260507175404 30 101 9.7 20.9 0.00 0.05 0.05 77 1011.4
20260507174505 30 80 9.7 16.1 0.00 0.05 0.05 77 1011.6
20260507173604 30 66 9.7 20.9 0.00 0.05 0.05 77 1011.7
20260507172705 30 102 9.7 22.5 0.05 0.05 0.05 77 1011.9
20260507171804 30 92 6.4 12.9 0.05 0.05 0.05 76 1011.8
20260507170905 30 81 3.2 9.7 0.05 0.05 0.05 78 1012.1
20260507170005 30 124 6.4 11.3 0.05 0.05 0.05 80 1012.3
20260507165405 30 114 6.4 11.3 0.05 0.05 0.05 79 1012.5
20260507164505 30 117 4.8 9.7 0.05 0.05 0.05 75 1012.6
20260507163604 30 135 4.8 12.9 0.05 0.05 0.05 75 1012.6
20260507162704 30 94 6.4 9.7 0.00 0.00 0.00 75 1012.6
20260507161804 30 101 6.4 11.3 0.00 0.00 0.00 75 1012.8
20260507160904 30 99 9.7 14.5 0.00 0.00 0.00 75 1012.9
20260507160005 30 95 8.0 12.9 0.00 0.00 0.00 75 1012.8
20260507155404 30 98 8.0 12.9 0.00 0.00 0.00 75 1013.0
20260507154505 30 104 6.4 12.9 0.00 0.00 0.00 75 1012.8
20260507153604 30 98 8.0 12.9 0.00 0.00 0.00 75 1012.9
20260507152704 30 82 8.0 16.1 0.00 0.00 0.00 75 1013.1
20260507151804 30 105 8.0 20.9 0.00 0.00 0.00 75 1013.1
20260507150904 30 121 8.0 17.7 0.00 0.00 0.00 75 1013.1
20260507150005 30 90 8.0 20.9 0.00 0.00 0.00 74 1013.3
20260507145404 30 102 8.0 17.7 0.00 0.00 0.00 75 1013.3
20260507144504 30 68 3.2 6.4 0.00 0.00 0.00 72 1013.5
20260507143604 30 106 4.8 11.3 0.00 0.00 0.00 72 1013.2
20260507142704 30 147 3.2 6.4 0.00 0.00 0.00 72 1013.3
20260507141825 30 132 4.8 11.3 0.00 0.00 0.00 72 1013.5
20260507140904 30 98 8.0 12.9 0.00 0.00 0.00 72 1013.4
20260507140006 30 117 4.8 14.5 0.00 0.00 0.00 72 1013.5
20260507135404 31 101 4.8 9.7 0.00 0.00 0.00 69 1013.6
20260507134504 31 149 3.2 4.8 0.00 0.00 0.00 68 1013.6
20260507133604 30 65 4.8 9.7 0.00 0.00 0.00 71 1013.6
20260507132704 30 112 3.2 11.3 0.00 0.00 0.00 70 1013.3
20260507131804 30 80 4.8 9.7 0.00 0.00 0.00 72 1013.4
20260507130904 30 71 3.2 9.7 0.00 0.00 0.00 70 1013.4
20260507130004 28 60 4.8 9.7 0.00 0.00 0.00 75 1013.4
20260507125425 29 73 4.8 9.7 0.00 0.00 0.00 75 1013.1
20260507124504 28 69 3.2 6.4 0.00 0.00 0.00 76 1013.2
20260507123604 29 96 3.2 6.4 0.00 0.00 0.00 75 1013.4
20260507122705 29 110 1.6 6.4 0.00 0.00 0.00 75 1013.3
20260507121804 28 112 1.6 4.8 0.00 0.00 0.00 76 1012.9
20260507120904 28 119 1.6 4.8 0.00 0.00 0.00 77 1012.9
20260507120005 28 119 1.6 3.2 0.00 0.00 0.00 76 1013.0
20260507115404 28 128 3.2 6.4 0.00 0.00 0.00 79 1012.9
20260507114504 27 133 3.2 4.8 0.00 0.00 0.00 81 1012.8
20260507113604 27 145 3.2 6.4 0.00 0.00 0.00 82 1012.8
20260507112725 27 158 3.2 6.4 0.00 0.00 0.00 83 1012.5
20260507111805 27 139 1.6 4.8 0.00 0.00 0.00 83 1012.5
20260507110904 26 144 1.6 3.2 0.00 0.00 0.00 85 1012.5
20260507110005 26 122 1.6 3.2 0.00 0.00 0.00 85 1012.6
20260507105425 26 127 0.0 3.2 0.00 0.00 0.00 86 1012.7
20260507104505 26 119 1.6 3.2 0.00 0.00 0.00 87 1012.5
20260507103625 25 109 1.6 3.2 0.00 0.00 0.00 88 1012.4
20260507102704 25 105 0.0 1.6 0.00 0.00 0.00 89 1012.3
20260507101804 25 139 0.0 4.8 0.00 0.00 0.00 91 1012.4
20260507100904 26 133 0.0 4.8 0.00 0.00 0.00 85 1012.3
20260507100005 26 0 0.0 0.0 0.00 0.00 0.00 85 1012.2
20260507095405 26 0 0.0 0.0 0.00 0.00 0.00 85 1012.0
20260507094525 26 0 0.0 0.0 0.00 0.00 0.00 85 1011.9
20260507093625 26 0 0.0 0.0 0.00 0.00 0.00 85 1012.1
20260507092704 26 0 0.0 0.0 0.00 0.00 0.00 85 1012.0
20260507091804 26 0 0.0 0.0 0.00 0.00 0.00 85 1012.0
20260507090904 26 0 0.0 0.0 0.00 0.00 0.00 85 1012.0
20260507090005 26 0 0.0 0.0 0.00 0.00 0.00 85 1012.0
20260507085404 26 0 0.0 0.0 0.00 0.00 0.00 85 1012.2
20260507084505 26 0 0.0 0.0 0.00 0.00 0.00 85 1012.1
20260507083604 26 0 0.0 0.0 0.00 0.00 0.00 85 1012.1
20260507082705 26 0 0.0 0.0 0.00 0.00 0.00 85 1011.9
20260507081804 26 0 0.0 0.0 0.00 0.00 0.00 85 1012.2
20260507080925 26 0 0.0 0.0 0.00 0.00 0.00 85 1012.1
20260507080005 26 0 0.0 0.0 0.00 0.00 0.00 85 1011.9
20260507075404 26 0 0.0 0.0 0.00 0.00 0.00 85 1012.0
20260507074504 26 152 0.0 3.2 0.00 0.00 0.00 85 1012.1
20260507073604 26 154 1.6 4.8 0.00 0.00 0.00 85 1012.1
20260507072704 26 0 0.0 0.0 0.00 0.00 0.00 85 1012.0
20260507071825 26 0 0.0 0.0 0.00 0.00 0.00 85 1012.3
20260507070904 26 0 0.0 0.0 0.00 0.00 0.00 85 1012.2
20260507070009 26 0 0.0 0.0 0.00 0.00 0.00 85 1012.3
20260507065425 26 0 0.0 0.0 0.00 0.00 0.00 85 1012.4
20260507064504 26 0 0.0 0.0 0.00 0.00 0.00 85 1012.3
20260507063604 26 0 0.0 0.0 0.00 0.00 0.00 85 1012.5
20260507062704 26 0 0.0 0.0 0.00 0.00 0.00 85 1012.8
20260507061804 26 0 0.0 0.0 0.00 0.00 0.00 85 1012.7
20260507060925 26 0 0.0 0.0 0.00 0.00 0.00 85 1012.8
20260507060004 26 112 0.0 3.2 0.00 0.00 0.00 85 1013.1
20260507055404 26 0 0.0 0.0 0.00 0.00 0.00 85 1012.9
20260507054504 26 0 0.0 0.0 0.00 0.00 0.00 85 1013.1
20260507053625 26 0 0.0 0.0 0.00 0.00 0.00 85 1013.0
20260507052704 26 0 0.0 0.0 0.00 0.00 0.00 85 1013.1
20260507051804 26 189 0.0 3.2 0.00 0.00 0.00 85 1013.4
20260507050904 26 200 1.6 3.2 0.00 0.00 0.00 85 1013.5
20260507050005 26 191 1.6 4.8 0.00 0.00 0.00 85 1013.6
20260507045404 26 195 1.6 4.8 0.00 0.00 0.00 85 1013.8
20260507044504 26 180 1.6 4.8 0.00 0.00 0.00 85 1013.9
20260507043604 26 153 1.6 6.4 0.00 0.00 0.00 85 1014.0
20260507042704 26 125 1.6 4.8 0.00 0.00 0.00 85 1014.2
20260507041804 26 110 1.6 4.8 0.00 0.00 0.00 85 1014.2
20260507040904 26 121 3.2 6.4 0.00 0.00 0.00 85 1014.3
20260507040005 26 117 3.2 6.4 0.00 0.00 0.00 85 1014.4
20260507035425 26 116 3.2 6.4 0.00 0.00 0.00 85 1014.2
20260507034505 26 108 1.6 3.2 0.00 0.00 0.00 85 1014.4
20260507033625 26 112 1.6 4.8 0.00 0.00 0.00 85 1014.5
20260507032704 26 113 0.0 3.2 0.00 0.00 0.00 85 1014.6
20260507031804 26 95 0.0 1.6 0.00 0.00 0.00 85 1014.7
20260507030904 26 113 1.6 3.2 0.00 0.00 0.00 85 1014.5
20260507030004 26 130 0.0 3.2 0.00 0.00 0.00 85 1014.7
20260507025425 26 0 0.0 0.0 0.00 0.00 0.00 85 1014.8
20260507024504 26 126 1.6 3.2 0.00 0.00 0.00 85 1014.7
20260507023604 26 117 1.6 6.4 0.00 0.00 0.00 85 1014.7
20260507022704 26 115 1.6 4.8 0.00 0.00 0.00 85 1014.4
20260507021804 26 128 1.6 4.8 0.00 0.00 0.00 85 1014.4
20260507020904 26 153 3.2 9.7 0.00 0.00 0.00 86 1014.4
20260507020004 26 146 3.2 6.4 0.00 0.00 0.00 87 1014.2
20260507015404 26 144 1.6 6.4 0.00 0.00 0.00 88 1014.3
20260507014504 26 114 3.2 9.7 0.00 0.00 0.00 87 1014.1
20260507013604 32 125 3.2 6.4 0.00 0.00 0.00 59 1014.2
20260507012725 32 126 3.2 6.4 0.00 0.00 0.00 59 1014.0
20260507011804 32 103 0.0 3.2 0.00 0.00 0.00 59 1014.1
20260507010004 32 132 3.2 4.8 0.00 0.00 0.00 59 1013.8
20260507005404 32 131 1.6 4.8 0.00 0.00 0.00 59 1013.8
20260507004504 32 129 0.0 3.2 0.00 0.00 0.00 59 1013.6
20260507003625 32 170 1.6 3.2 0.00 0.00 0.00 59 1013.7
20260507002725 32 152 3.2 6.4 0.00 0.00 0.00 59 1013.5
20260507001804 32 141 3.2 6.4 0.00 0.00 0.00 59 1013.5
20260507000925 32 138 4.8 11.3 0.00 0.00 0.00 59 1013.3
20260507000004 32 128 4.8 11.3 0.00 0.00 0.00 59 1013.2
20260506235404 32 126 6.4 11.3 0.00 0.00 0.00 59 1013.2
20260506234504 32 125 3.2 11.3 0.00 0.00 0.00 59 1013.0
20260506233604 32 131 4.8 9.7 0.00 0.00 0.00 59 1012.7